TITAN 3C TRANSTAGE DEB, 38704

Orbit data source: Space-Track

TITAN 3C TRANSTAGE DEB, 38704 is space debris in GEO originally from a launch on Thu, 26 Sep 1968 UTC launched from the Air Force Eastern Test Range (AFETR). Debris objects in space refer to the collection of defunct objects orbiting the Earth. Examples of debris include non-operational satellites, rocket bodies, and fragments generated from explosions, collisions, or faulty payload assembly.

Loading next visibility...
Identifier
38704, 1968-081AE
Orbit
GEO
Country
Flag of USUS
Related business
Manufacturer
Unknown
Mission
Spacecraft
Bus & Motor
Unknown
Mass
Unknown
Launch date (UTC)
1968-09-26 (57 years ago)
Launch vehicle
Unknown
Launch site
Air Force Eastern Test Range (AFETR)
Object type
Payload
Rocket body
Debris
Shape & HBR
Unknown shape, 1.1 m
Radar Cross Section
Small (<0.1 m²)

Expand to show TLE details & history
Last TLE update: 1 day ago

TLE from 1 day ago
0 TITAN 3C TRANSTAGE DEB
1 38704U 68081AE  25352.09253314 -.00000206  00000-0  00000-0 0  9998
2 38704   3.7025  64.3830 0214944 217.1796 140.9396  1.02195262 74159
Epoch: 2025-12-18T02:13Z
TLE epoch observation values (Epoch: 2025-12-18T02:13:14.863Z)
Latitude
-0°
Longitude
-56.25018°
Altitude
35,962.238 km
Speed
3.042 km/s
True Right ascension
04h 16m 03s
True Declination
0° 00' 00"
Sunlit
Object was in daylight at epoch
Visualization orbit readout
Latitude
Unknown
Longitude
Unknown
Altitude
Unknown
Speed
Unknown
Apparent Right ascension
Unknown
Apparent Declination
Unknown
Sunlit
N/A
Visualization observer readout
Local Sidereal Time
07:09:21
Azimuth
Unknown
Elevation
Unknown
Doppler factor
Unknown
Orbital elements
Apogee altitude
36,151.848 km
Perigee altitude
34,362.007 km
Semi-major axis
41,635.064 km
Eccentricity
0.02149
Inclination
3.7025°
RAAN
64.383°
Arg. of periapsis
217.1796°
True anomaly
142.45976°
Mean anomaly
140.9396°
Eccentric anomaly
141.70283°
Mean motion
0.25548 °/min
Orbital period
1,409.12 mins
BSTAR
0
Loading maneuver chart data...
Computing Atmospheric mass density...

Documentation

Showing up to 5 results
|